Location: Maccacari
(45.1333°N, 11.1333°E)
Time: 02:13:14
(UTC+00:00)

Altair - Pass Details

Date: 29 January 2021
Orbit: 1501 x 1682 km, 47.2° (Epoch: 01 March)

Event Time Altitude Azimuth Distance (km) Brightness Sun altitude
Rises 11:14:32 0° 289° (WNW) 4,938 9.9 27.0°
Reaches altitude 10° 11:19:15 10° 271° (W) 3,935 9.7 27.0°
Maximum altitude 11:24:54 17° 236° (WSW) 3,391 9.9 27.1°
Drops below altitude 10° 11:30:30 10° 201° (SSW) 3,871 11.0 27.1°
Sets 11:35:08 0° 182° (S) 4,820 11.4 27.1°
